User: anonymous   Login
Location: Indian Hills
(32.9760°N, 85.9450°W)
Time: 01:40:40
(UTC+00:00)
Language:

Cosmos 614 Rocket - Orbit

View from above orbital plane
View from above orbital plane
View from above satellite
View from above satellite

Ground track
Ground track

The orbit data is extracted from the following two-line orbital elements,

1  6966U 73098B   20047.66294231  .00000040  00000-0  19824-4 0  9992
2  6966  74.0547 214.4369 0022275 302.8302  57.0710 14.43020642426098
Epoch (UTC): 16 February 2020 15:54:38
Eccentricity: 0.0022275
inclination: 74.0547°
perigee height: 732 km
apogee height: 764 km
right ascension of ascending node: 214.4369°
argument of perigee: 302.8302°
revolutions per day: 14.43020642
mean anomaly at epoch: 57.0710°
orbit number at epoch: 42609

The dashed part of the orbit path shows where the satellite is in the earth's shadow,  

DLR